Location: Unnamed
(51.8936°N, 11.0665°E)
Time: 04:50:09
(UTC+02:00)

SO-50 - Visible Passes

Search period start: 28 September 2021 00:00
Search period end: 08 October 2021 00:00
Orbit: 605 x 680 km, 64.6° (Epoch: 27 September)

Date Brightness Start Highest point End Pass type
(mag) Time Alt. Az. Time Alt. Az. Time Alt. Az.
28 Sep ? 03:01:02 11° E 03:01:02 11° E 03:01:22 10° E visible
28 Sep ? 04:38:40 67° S 04:39:04 72° SE 04:43:41 10° NE visible
28 Sep ? 06:16:18 12° W 06:19:56 30° NNW 06:24:03 10° NNE visible
29 Sep ? 03:25:28 21° E 03:25:28 21° E 03:27:38 10° ENE visible
29 Sep ? 05:03:05 50° W 05:03:57 61° NW 05:08:33 10° NE visible
30 Sep ? 03:49:50 37° ENE 03:49:50 37° ENE 03:52:53 10° NE visible
30 Sep ? 05:27:28 28° WNW 05:29:03 36° NNW 05:33:22 10° NE visible
01 Oct ? 04:14:10 55° NNE 04:14:10 55° NNE 04:17:51 10° NE visible
01 Oct ? 05:51:48 16° WNW 05:54:19 25° NNW 05:58:11 10° NNE visible
02 Oct ? 03:00:51 17° ENE 03:00:51 17° ENE 03:02:02 10° NE visible
02 Oct ? 04:38:29 44° NNW 04:38:29 44° NNW 04:42:40 10° NE visible
02 Oct ? 06:16:21 10° WNW 06:19:43 20° NNW 06:23:09 10° NNE visible
03 Oct ? 03:25:08 25° NE 03:25:08 25° NE 03:27:06 10° NE visible
03 Oct ? 05:02:45 28° NW 05:03:23 29° NNW 05:07:28 10° NNE visible
03 Oct ? 06:42:06 10° NW 06:45:13 17° N 06:48:23 10° NE visible
04 Oct ? 03:49:23 31° NNE 03:49:23 31° NNE 03:51:58 10° NE visible
04 Oct ? 05:27:00 18° NW 05:28:44 22° NNW 05:32:21 10° NNE visible
05 Oct ? 02:36:00 12° NE 02:36:00 12° NE 02:36:19 10° NE visible
05 Oct ? 04:13:37 30° N 04:13:37 30° N 04:16:46 10° NE visible
05 Oct ? 05:51:14 11° NW 05:54:12 18° N 05:57:27 10° NE visible
06 Oct ? 03:00:13 17° NE 03:00:13 17° NE 03:01:16 10° NE visible
06 Oct ? 04:37:50 24° NNW 04:37:50 24° NNW 04:41:37 10° NNE visible
06 Oct ? 06:16:35 10° NW 06:19:42 17° N 06:22:52 10° NE visible
07 Oct ? 03:24:26 20° NNE 03:24:26 20° NNE 03:26:05 10° NE visible
07 Oct ? 05:02:03 18° NNW 05:03:11 19° NNW 05:06:35 10° NNE visible
07 Oct ? 06:41:52 10° NW 06:45:13 19° NNE 06:48:37 10° ENE visible
